Weather History for New Bedford, MA

Change the Weather History Date:

Friday, January 30, 2015

  Actual Average Record
Temperature  
Mean Temperature 30 °F -  
Max Temperature 34 °F 37 °F 59 °F (2013)
Min Temperature 21 °F 24 °F 7 °F (1977)
Degree Days  
Heating Degree Days 36    
Moisture  
Dew Point 29 °F    
Average Humidity 89    
Maximum Humidity 100    
Minimum Humidity 60    
Precipitation  
Precipitation 0.05 in - - ()
Sea Level Pressure  
Sea Level Pressure 29.78 in    
Wind  
Wind Speed 5 mph (NW)    
Max Wind Speed 17 mph    
Max Gust Speed 30 mph    
Visibility 8 miles    
Events Rain , Snow    
Averages and records for this station are not official NWS values.
T = Trace of Precipitation, MM = Missing Value Source: NWS Daily Summary

Daily Weather History Graph

Daily Weather History Graph

Search for Another Location

Airport:

Trip Planner

Search our weather history database for the weather conditions in past years. The results will help you decide how hot, cold, wet, or windy it might be!

Date:

Astronomy

Jan. 30, 2015 Rise Set
Actual Time 6:58 AM EST 4:56 PM EST
Civil Twilight 6:28 AM EST 5:26 PM EST
Nautical Twilight 5:55 AM EST 5:59 PM EST
Astronomical Twilight 5:22 AM EST 6:32 PM EST
Moon 1:28 PM EST (1/30) 3:24 AM EST (1/30)
Length of Visible Light 10h 57m
Length of Day
9h 58m
Waxing Gibbous, 84% of the Moon is Illuminated
Jan 30
Waxing Gibbous
Feb 3
Full
Feb 11
Last Quarter
Feb 18
New
Feb 25
First Quarter

Hourly Weather History & Observations

Time (EST) Temp. Windchill Dew Point Humidity Pressure Visibility Wind Dir Wind Speed Gust Speed Precip Events Conditions
12:53 AM 30.9 °F 25.2 °F 27.0 °F 85% 30.01 in 10.0 mi ESE 5.8 mph - N/A   Overcast
1:53 AM 30.9 °F 25.2 °F 28.0 °F 89% 29.99 in 10.0 mi SE 5.8 mph - N/A   Overcast
2:53 AM 32.0 °F 27.5 °F 28.0 °F 85% 29.95 in 6.0 mi ESE 4.6 mph - 0.00 in Snow Light Snow
3:53 AM 32.0 °F 24.2 °F 30.0 °F 92% 29.91 in 10.0 mi SE 9.2 mph - 0.00 in   Overcast
4:53 AM 34.0 °F 28.0 °F 30.0 °F 85% 29.88 in 10.0 mi SE 6.9 mph - 0.00 in   Overcast
5:53 AM 34.0 °F 31.0 °F 32.0 °F 92% 29.87 in 10.0 mi ESE 3.5 mph - 0.00 in Rain Light Rain
6:53 AM 34.0 °F - 33.1 °F 96% 29.85 in 10.0 mi Calm Calm - 0.00 in Rain Light Rain
7:00 AM 34.0 °F 29.8 °F 33.1 °F 96% 29.84 in 10.0 mi SE 4.6 mph - 0.00 in Rain Light Rain
7:53 AM 34.0 °F - 33.1 °F 96% 29.83 in 6.0 mi Calm Calm - 0.01 in Rain Light Rain
8:31 AM 33.1 °F - 33.1 °F 100% 29.81 in 5.0 mi Calm Calm - 0.00 in   Overcast
8:53 AM 34.0 °F - 33.1 °F 96% 29.81 in 5.0 mi Calm Calm - 0.00 in   Overcast
9:29 AM 34.0 °F - 33.1 °F 96% 29.80 in 3.0 mi Calm Calm - 0.01 in Rain Light Rain
9:46 AM 34.0 °F - 34.0 °F 100% 29.80 in 2.5 mi Calm Calm - 0.02 in Rain Light Rain
9:53 AM 33.8 °F - 33.8 °F 100% 29.80 in 3.0 mi Calm Calm - N/A Rain Light Rain
10:13 AM 34.0 °F - 33.1 °F 96% 29.79 in 2.5 mi Calm Calm - 0.00 in Snow Light Snow
10:26 AM 34.0 °F - 33.1 °F 96% 29.79 in 1.8 mi Calm Calm - 0.01 in Snow Light Snow
10:53 AM 34.0 °F - 33.1 °F 96% 29.78 in 2.0 mi Calm Calm - 0.03 in Snow Light Snow
11:02 AM 34.0 °F - 33.1 °F 96% 29.77 in 2.0 mi Calm Calm - 0.00 in Snow Light Snow
11:15 AM 34.0 °F - 33.1 °F 96% 29.75 in 2.0 mi Calm Calm - 0.01 in Snow Light Snow
11:53 AM 34.0 °F 29.8 °F 33.1 °F 96% 29.75 in 2.0 mi West 4.6 mph - 0.01 in   Overcast
12:00 PM 34.0 °F 31.0 °F 33.1 °F 96% 29.74 in 7.0 mi WNW 3.5 mph - 0.00 in   Overcast
12:53 PM 33.1 °F 28.7 °F 30.9 °F 92% 29.72 in 10.0 mi WNW 4.6 mph - 0.00 in   Overcast
1:06 PM 33.1 °F 28.7 °F 30.9 °F 92% 29.71 in 7.0 mi NW 4.6 mph - 0.00 in Snow Light Snow
1:39 PM 34.0 °F 31.0 °F 32.0 °F 92% 29.70 in 8.0 mi Variable 3.5 mph - 0.00 in   Overcast
1:53 PM 34.0 °F - 32.0 °F 92% 29.71 in 10.0 mi Calm Calm - 0.00 in   Overcast
2:53 PM 34.0 °F 29.8 °F 30.9 °F 89% 29.70 in 10.0 mi NW 4.6 mph - N/A   Overcast
3:53 PM 33.1 °F 28.7 °F 30.9 °F 92% 29.70 in 10.0 mi NW 4.6 mph - N/A   Overcast
4:49 PM 33.8 °F 28.6 °F 30.2 °F 87% 29.70 in 10.0 mi NW 5.8 mph - N/A   Overcast
4:53 PM 33.1 °F 28.7 °F 30.0 °F 89% 29.71 in 10.0 mi NW 4.6 mph - N/A   Overcast
5:17 PM 33.1 °F 28.7 °F 30.0 °F 89% 29.71 in 10.0 mi Variable 4.6 mph - N/A   Overcast
5:53 PM 33.8 °F 28.6 °F 30.2 °F 87% 29.72 in 10.0 mi WNW 5.8 mph - N/A   Overcast
6:53 PM 32.0 °F 23.6 °F 28.0 °F 85% 29.72 in 10.0 mi WNW 10.4 mph 16.1 mph N/A   Overcast
7:23 PM 32.0 °F 24.2 °F 28.0 °F 85% 29.71 in 9.0 mi NW 9.2 mph - 0.00 in Snow Light Snow
7:53 PM 32.0 °F 23.6 °F 27.0 °F 82% 29.72 in 7.0 mi NW 10.4 mph 19.6 mph 0.00 in Snow Light Snow
8:53 PM 30.0 °F 18.7 °F 19.9 °F 66% 29.71 in 10.0 mi NW 16.1 mph 29.9 mph 0.00 in   Overcast
9:07 PM 28.9 °F 17.3 °F 19.0 °F 67% 29.70 in 10.0 mi NW 16.1 mph 27.6 mph N/A   Overcast
9:53 PM 27.0 °F 14.7 °F 17.1 °F 66% 29.72 in 10.0 mi NW 16.1 mph 29.9 mph 0.00 in   Overcast
10:53 PM 25.0 °F 14.2 °F 12.9 °F 60% 29.73 in 10.0 mi NNW 11.5 mph 20.7 mph N/A   Overcast
11:53 PM 21.9 °F 7.8 °F 10.0 °F 60% 29.72 in 10.0 mi NNW 17.3 mph 25.3 mph N/A   Overcast